Location: Asheville, NC
(35.6000°N, 82.5500°W)
Time: 10:51:16

NO-84 - Pass Details

Date: 06 January 2018
Orbit: 340 x 557 km, 55.0° (Epoch: 21 March)

Event Time Altitude Azimuth Distance (km) Brightness Sun altitude
Exits shadow 06:56:11 13° 296° (WNW) 1,332 ? -9.0°
Maximum altitude 06:58:52 36° 231° (SW) 697 ? -8.5°
Drops below altitude 10° 07:02:08 10° 163° (SSE) 1,581 ? -7.9°
Sets 07:04:27 0° 155° (SSE) 2,497 ? -7.4°
